カタログに戻る

STARLINK-32702

運用中通信VLEO
NORAD 62432·PAYLOAD·🇺🇸 United States

打ち上げ Dec 29, 2024 から Vandenberg Space Force Base

Loading…

次のパス (今後24時間)

TLE

最新Source: CelesTrak SupGP

元期: Sep 15, 2026, 02:06 UTC

1 62432C 24251A   26258.08798611 -.00054922  00000+0 -16226-2 0  2584
2 62432  53.1571 171.1410 0001278  84.2331  94.0383 15.34419659    10

AllMySatでSTARLINK-32702をリアルタイム追跡

Download on the App Store